Location: Gro�sch�nbrunn
(49.5760°N, 11.8868°E)
Time: 12:23:06
(UTC+00:00)

Lacrosse 5 rocket - Pass Details

Date: 18 September 2020
Orbit: 460 x 635 km, 57.0° (Epoch: 23 October)

Event Time Altitude Azimuth Distance (km) Brightness Sun altitude
Rises 19:47:20 0° 284° (WNW) 2,794 6.1 -23.6°
Reaches altitude 10° 19:49:45 10° 295° (WNW) 1,924 5.1 -23.9°
Maximum altitude 19:53:42 31° 359° (N) 1,073 3.0 -24.4°
Enters shadow 19:55:10 25° 34° (NNE) 1,239 3.1 -24.6°
